EWG6KC EDDH-EDDB

Flight info

Callsign EWG6KC
Flight time 0h 34m
Altitude 23000
Route RAMAR6C RAMAR Z998 PITEN L619 VIBIS T209 OGBER OGBO6R
Aircraft A320/M-SDE3FGHIRWY/LB1

Departure

Time 2026-05-06 13:17
Airport Hamburg Helmut Schmidt Airport (EDDH)

Arrival

Time 2026-05-06 13:51
Airport Berlin Brandenburg Airport (EDDB)
Time Latitude Longitude Altitude Speed Heading
2026-05-06 13:01 53.62744 9.99152 23 ft 0 kts 62°
2026-05-06 13:08 53.62743 9.99148 51 ft 2 kts 62°
2026-05-06 13:08 53.62735 9.99122 51 ft 2 kts 62°
2026-05-06 13:09 53.62732 9.99112 51 ft 2 kts 62°
2026-05-06 13:09 53.62724 9.99089 45 ft 2 kts 62°
2026-05-06 13:09 53.62719 9.99063 46 ft 2 kts 92°
2026-05-06 13:09 53.62722 9.99035 47 ft 2 kts 133°
2026-05-06 13:10 53.62727 9.99026 48 ft 0 kts 159°
2026-05-06 13:12 53.62718 9.99032 48 ft 4 kts 158°
2026-05-06 13:12 53.62673 9.99067 49 ft 10 kts 153°
2026-05-06 13:12 53.62595 9.99123 51 ft 13 kts 174°
2026-05-06 13:12 53.62555 9.99018 51 ft 11 kts 258°
2026-05-06 13:13 53.62541 9.98902 51 ft 10 kts 259°
2026-05-06 13:13 53.62525 9.98763 51 ft 17 kts 259°
2026-05-06 13:13 53.62498 9.98522 51 ft 24 kts 259°
2026-05-06 13:13 53.62466 9.98241 50 ft 25 kts 259°
2026-05-06 13:14 53.62394 9.98020 50 ft 20 kts 233°
2026-05-06 13:14 53.62297 9.97819 50 ft 24 kts 230°
2026-05-06 13:14 53.62199 9.97621 50 ft 19 kts 232°
2026-05-06 13:14 53.62199 9.97432 48 ft 10 kts 310°
2026-05-06 13:15 53.62203 9.97422 49 ft 0 kts 309°
2026-05-06 13:15 53.62217 9.97399 50 ft 9 kts 318°
2026-05-06 13:15 53.62304 9.97349 49 ft 16 kts 31°
2026-05-06 13:16 53.62329 9.97394 49 ft 0 kts 49°
2026-05-06 13:16 53.62330 9.97396 49 ft 2 kts 49°
2026-05-06 13:16 53.62422 9.97578 48 ft 53 kts 50°
2026-05-06 13:17 53.62808 9.98363 50 ft 118 kts 50°
2026-05-06 13:17 53.63425 9.99619 269 ft 148 kts 51°
2026-05-06 13:17 53.64086 10.01018 923 ft 157 kts 52°
2026-05-06 13:17 53.64761 10.02477 1657 ft 159 kts 52°
2026-05-06 13:18 53.65488 10.04056 1949 ft 188 kts 52°
2026-05-06 13:18 53.66326 10.05835 2646 ft 195 kts 51°
2026-05-06 13:18 53.67177 10.07615 3564 ft 196 kts 53°
2026-05-06 13:18 53.68044 10.09430 4346 ft 202 kts 53°
2026-05-06 13:19 53.68948 10.11319 4872 ft 210 kts 53°
2026-05-06 13:19 53.69865 10.13235 4984 ft 210 kts 53°
2026-05-06 13:19 53.70781 10.15168 4995 ft 211 kts 57°
2026-05-06 13:19 53.71455 10.17377 5008 ft 224 kts 72°
2026-05-06 13:20 53.71908 10.20057 4999 ft 246 kts 75°
2026-05-06 13:20 53.72375 10.22868 5000 ft 250 kts 74°
2026-05-06 13:20 53.72854 10.25734 5424 ft 255 kts 75°
2026-05-06 13:20 53.73336 10.28613 6502 ft 256 kts 74°
2026-05-06 13:21 53.73819 10.31506 7420 ft 263 kts 74°
2026-05-06 13:21 53.74320 10.34528 8246 ft 270 kts 74°
2026-05-06 13:21 53.74830 10.37619 9099 ft 276 kts 74°
2026-05-06 13:21 53.75354 10.40790 9702 ft 285 kts 74°
2026-05-06 13:22 53.75889 10.44028 9849 ft 288 kts 74°
2026-05-06 13:22 53.76462 10.47473 10007 ft 318 kts 74°
2026-05-06 13:22 53.77074 10.51169 10459 ft 333 kts 75°
2026-05-06 13:22 53.77699 10.54982 11135 ft 340 kts 75°
2026-05-06 13:23 53.78335 10.58864 11816 ft 347 kts 75°
2026-05-06 13:23 53.78968 10.62853 12442 ft 354 kts 80°
2026-05-06 13:23 53.79204 10.66170 12997 ft 357 kts 91°
2026-05-06 13:23 53.79115 10.69064 13498 ft 357 kts 101°
2026-05-06 13:24 53.78516 10.73137 14201 ft 358 kts 114°
2026-05-06 13:24 53.77393 10.76903 14858 ft 361 kts 124°
2026-05-06 13:24 53.76049 10.80522 15530 ft 366 kts 125°
2026-05-06 13:24 53.74688 10.84174 16222 ft 369 kts 124°
2026-05-06 13:25 53.73316 10.87855 16887 ft 372 kts 124°
2026-05-06 13:25 53.71928 10.91580 17520 ft 376 kts 125°
2026-05-06 13:25 53.70336 10.95088 18136 ft 377 kts 137°
2026-05-06 13:25 53.68431 10.98151 18684 ft 380 kts 139°
2026-05-06 13:26 53.66499 11.01247 19197 ft 385 kts 139°
2026-05-06 13:26 53.64574 11.04332 19715 ft 389 kts 139°
2026-05-06 13:26 53.62600 11.07498 20257 ft 393 kts 139°
2026-05-06 13:26 53.60607 11.10687 20816 ft 397 kts 139°
2026-05-06 13:27 53.58591 11.13901 21357 ft 401 kts 139°
2026-05-06 13:27 53.56552 11.17139 21883 ft 405 kts 139°
2026-05-06 13:27 53.54492 11.20407 22403 ft 409 kts 139°
2026-05-06 13:27 53.52417 11.23699 22771 ft 412 kts 139°
2026-05-06 13:28 53.50321 11.27018 22855 ft 418 kts 139°
2026-05-06 13:28 53.48192 11.30378 22851 ft 421 kts 139°
2026-05-06 13:28 53.46060 11.33736 22849 ft 421 kts 139°
2026-05-06 13:28 53.43922 11.37101 22850 ft 421 kts 139°
2026-05-06 13:29 53.41791 11.40453 22829 ft 420 kts 139°
2026-05-06 13:29 53.39689 11.43758 22842 ft 420 kts 139°
2026-05-06 13:29 53.37561 11.47099 22839 ft 420 kts 139°
2026-05-06 13:29 53.35428 11.50442 22839 ft 420 kts 139°
2026-05-06 13:30 53.33299 11.53777 22842 ft 419 kts 139°
2026-05-06 13:30 53.31171 11.57107 22838 ft 419 kts 139°
2026-05-06 13:30 53.29037 11.60436 22844 ft 419 kts 139°
2026-05-06 13:30 53.26903 11.63754 22838 ft 420 kts 139°
2026-05-06 13:31 53.24763 11.67078 22843 ft 420 kts 139°
2026-05-06 13:31 53.22623 11.70395 22849 ft 420 kts 139°
2026-05-06 13:31 53.20509 11.73667 22845 ft 420 kts 139°
2026-05-06 13:31 53.18368 11.76976 22839 ft 420 kts 139°
2026-05-06 13:32 53.16231 11.80278 22834 ft 417 kts 139°
2026-05-06 13:32 53.14127 11.83533 22360 ft 409 kts 140°
2026-05-06 13:32 53.12053 11.86735 21780 ft 405 kts 140°
2026-05-06 13:32 53.09998 11.89903 21201 ft 401 kts 140°
2026-05-06 13:33 53.07956 11.93049 20641 ft 398 kts 140°
2026-05-06 13:33 53.05929 11.96161 20102 ft 395 kts 141°
2026-05-06 13:33 53.03911 11.99252 19564 ft 393 kts 141°
2026-05-06 13:33 53.01911 12.02314 19041 ft 390 kts 141°
2026-05-06 13:34 52.99945 12.05315 18538 ft 388 kts 141°
2026-05-06 13:34 52.97965 12.08329 18012 ft 385 kts 141°
2026-05-06 13:34 52.96012 12.11303 17780 ft 374 kts 141°
2026-05-06 13:34 52.94130 12.14176 17610 ft 362 kts 141°
2026-05-06 13:35 52.92297 12.16976 17232 ft 356 kts 141°
2026-05-06 13:35 52.90482 12.19738 16788 ft 353 kts 141°
2026-05-06 13:35 52.88675 12.22480 16306 ft 352 kts 142°
2026-05-06 13:35 52.86872 12.25207 15830 ft 351 kts 141°
2026-05-06 13:36 52.85098 12.27890 15391 ft 349 kts 141°
2026-05-06 13:36 52.83331 12.30569 15215 ft 339 kts 141°
2026-05-06 13:36 52.81621 12.33161 15084 ft 328 kts 142°
2026-05-06 13:36 52.79962 12.35676 14911 ft 320 kts 142°
2026-05-06 13:37 52.78329 12.38140 14603 ft 317 kts 142°
2026-05-06 13:37 52.76705 12.40581 14263 ft 315 kts 142°
2026-05-06 13:37 52.75085 12.43009 13927 ft 314 kts 142°
2026-05-06 13:37 52.73473 12.45427 13589 ft 313 kts 142°
2026-05-06 13:38 52.71866 12.47835 13224 ft 311 kts 142°
2026-05-06 13:38 52.70268 12.50233 12869 ft 309 kts 142°
2026-05-06 13:38 52.68684 12.52611 12515 ft 307 kts 142°
2026-05-06 13:38 52.67128 12.54946 12158 ft 305 kts 142°
2026-05-06 13:39 52.65562 12.57289 11809 ft 304 kts 142°
2026-05-06 13:39 52.64002 12.59617 11461 ft 302 kts 142°
2026-05-06 13:39 52.62454 12.61926 11083 ft 300 kts 142°
2026-05-06 13:39 52.60909 12.64230 10726 ft 299 kts 142°
2026-05-06 13:40 52.59368 12.66523 10378 ft 298 kts 142°
2026-05-06 13:40 52.57838 12.68795 10027 ft 296 kts 142°
2026-05-06 13:40 52.56313 12.71055 9667 ft 294 kts 142°
2026-05-06 13:40 52.54798 12.73305 9288 ft 292 kts 142°
2026-05-06 13:41 52.53317 12.75503 8915 ft 290 kts 142°
2026-05-06 13:41 52.51823 12.77719 8537 ft 288 kts 142°
2026-05-06 13:41 52.50341 12.79911 8153 ft 286 kts 141°
2026-05-06 13:41 52.48887 12.82066 7960 ft 275 kts 141°
2026-05-06 13:42 52.47510 12.84109 7595 ft 262 kts 141°
2026-05-06 13:42 52.46167 12.86096 7072 ft 258 kts 141°
2026-05-06 13:42 52.44844 12.88048 6514 ft 254 kts 141°
2026-05-06 13:42 52.43536 12.89973 5950 ft 251 kts 140°
2026-05-06 13:43 52.42243 12.91874 5348 ft 249 kts 140°
2026-05-06 13:43 52.40964 12.93749 5020 ft 246 kts 140°
2026-05-06 13:43 52.39695 12.95608 4976 ft 252 kts 139°
2026-05-06 13:43 52.38385 12.97531 4974 ft 253 kts 140°
2026-05-06 13:44 52.37115 12.99398 4891 ft 240 kts 139°
2026-05-06 13:44 52.35880 13.01211 4533 ft 239 kts 139°
2026-05-06 13:44 52.34642 13.03022 4159 ft 238 kts 139°
2026-05-06 13:44 52.33406 13.04829 3803 ft 238 kts 138°
2026-05-06 13:45 52.32180 13.06621 3493 ft 235 kts 137°
2026-05-06 13:45 52.29763 13.10152 2974 ft 232 kts 136°
2026-05-06 13:45 52.28563 13.11905 2979 ft 231 kts 136°
2026-05-06 13:46 52.27607 13.13944 2972 ft 222 kts 109°
2026-05-06 13:46 52.27370 13.16293 2970 ft 201 kts 82°
2026-05-06 13:46 52.27712 13.18364 2981 ft 184 kts 67°
2026-05-06 13:46 52.28159 13.20229 3015 ft 169 kts 66°
2026-05-06 13:47 52.28576 13.21947 2986 ft 160 kts 67°
2026-05-06 13:47 52.28983 13.23632 2998 ft 158 kts 65°
2026-05-06 13:47 52.29387 13.25310 2925 ft 158 kts 67°
2026-05-06 13:47 52.29787 13.26971 2762 ft 157 kts 66°
2026-05-06 13:48 52.30185 13.28627 2568 ft 156 kts 68°
2026-05-06 13:48 52.30579 13.30268 2389 ft 155 kts 67°
2026-05-06 13:48 52.30971 13.31902 2161 ft 154 kts 67°
2026-05-06 13:48 52.31361 13.33528 1949 ft 153 kts 67°
2026-05-06 13:49 52.31731 13.35076 1752 ft 144 kts 66°
2026-05-06 13:49 52.32087 13.36562 1562 ft 139 kts 67°
2026-05-06 13:49 52.32436 13.38024 1340 ft 138 kts 68°
2026-05-06 13:49 52.32769 13.39472 1197 ft 137 kts 67°
2026-05-06 13:50 52.33135 13.40919 995 ft 138 kts 64°
2026-05-06 13:50 52.33489 13.42385 783 ft 139 kts 66°
2026-05-06 13:50 52.33835 13.43859 633 ft 140 kts 65°
2026-05-06 13:50 52.34188 13.45344 408 ft 139 kts 66°
2026-05-06 13:51 52.34538 13.46815 206 ft 138 kts 67°
2026-05-06 13:51 52.34861 13.48166 155 ft 112 kts 68°
2026-05-06 13:51 52.35075 13.49081 154 ft 67 kts 68°
2026-05-06 13:51 52.35217 13.49683 154 ft 45 kts 70°
2026-05-06 13:52 52.35368 13.49984 155 ft 28 kts 37°
2026-05-06 13:52 52.35467 13.50116 157 ft 15 kts 38°
2026-05-06 13:52 52.35503 13.50162 158 ft 4 kts 39°
2026-05-06 13:52 52.35538 13.50208 158 ft 5 kts 39°
2026-05-06 13:53 52.35598 13.50304 158 ft 19 kts 61°
2026-05-06 13:53 52.35658 13.50541 158 ft 15 kts 68°
2026-05-06 13:53 52.35665 13.50575 158 ft 0 kts 70°